Regional Weather Roundup
Issued by NWS

Home | Current Version | Previous Version | Text Only | Print | Product List | Glossary On
Versions: 1 2 3 4 5 6 7 8 9 10 11 12 13 14 15 16 17 18 19 20 21 22 23 24 25 26 27 28 29 30 31 32 33 34 35 36 37 38 39 40 41 42 43 44 45 46 47 48 49 50
000
ASUS45 KTFX 030504
RWRMT
MONTANA HOURLY WEATHER ROUNDUP
NATIONAL WEATHER SERVICE GREAT FALLS MT
1104 PM MDT TUE SEP 2 2014

NOTE: "FAIR" INDICATES FEW OR NO CLOUDS BELOW 12000 FEET WITH NO
SIGNIFICANT WEATHER AND/OR OBSTRUCTIONS TO VISIBILITY.

* THESE STATIONS ARE NOT UNDER NWS QUALITY CONTROL. THEY DO NOT
   REPORT WEATHER SUCH AS PRECIPITATION OR FOG.

MTZ001>007-043-030600-
WEST OF THE DIVIDE
CITY           SKY/WX    TMP DP  RH WIND       PRES   REMARKS
KALISPELL      MOCLDY    54  46  74 NE5       29.66F
MISSOULA       CLOUDY    64  41  43 S5        29.70F
BUTTE          CLEAR     48  36  63 SE6       29.82S
MULLAN PASS    CLOUDY    50  34  54 VRB5      29.80F
* LINCOLN      N/A       50  37  61 N/A        N/A
* LOOKOUT PASS N/A       56  37  49 N/A        N/A
* POLSON       N/A       60  37  43 S2         N/A
* RONAN APT    MOCLDY    63  46  54 N/A        N/A
* SEELEY LAKE  N/A       52  41  66 NE2        N/A
* THOMP F APT  PTCLDY    55  27  34 N3G8       N/A
$$

MTZ008-052>055-030600-
SOUTHWEST MONTANA
CITY           SKY/WX    TMP DP  RH WIND       PRES   REMARKS
BOZEMAN        CLEAR     59  37  44 E6        29.74F
DILLON         CLEAR     55  36  49 S9        29.79S
W YELLOWSTONE  CLEAR     55  32  42 W3        29.94F
* THREE FORKS  CLEAR     68  52  57 N/A        N/A
* BOULDER HILL N/A       56  29  36 N1         N/A
* MONIDA PASS  N/A       53  28  38 SE11       N/A
* RAYNOLDS PAS N/A       53  32  45 SE10       N/A
* WHITEHALL    N/A       58  36  44 N4G9       N/A
* WISE RIVER   N/A       54  30  40 SW4G9      N/A
$$

MTZ009>010-012-014-046-048-049-054-030600-
EAST SLOPES AND CENTRAL MONTANA
CITY           SKY/WX    TMP DP  RH WIND       PRES   REMARKS
CUT BANK       MOCLDY    55  43  64 N16       29.73R
GREAT FALLS    CLOUDY    61  39  44 NE8       29.70F
HELENA         PTCLDY    61  37  41 W5        29.71F
MALMSTROM AFB  CLOUDY    61  39  44 NE6       29.71F
* CONRAD       MOCLDY    55  45  69 N/A        N/A
* EAST GLACIER N/A       50  41  71 E3         N/A
* MONARCH      N/A       52  35  52 SW2        N/A
* PENDROY      N/A       56  39  53 SW1        N/A
* ROGERS PASS  N/A       52  35  52 NW6        N/A
* SAINT MARY   N/A       48  43  83 E2G12      N/A
* SWEET GRASS  N/A       51  42  71 VRB11      N/A
$$

MTZ011-013-016-021-035-040-045-047-050-051-030600-
NORTH CENTRAL MONTANA
CITY           SKY/WX    TMP DP  RH WIND       PRES   REMARKS
HAVRE          CLOUDY    61  43  52 CALM      29.67S
LEWISTOWN      CLEAR     57  43  60 SE14      29.75S
* CHESTER      N/A       59  39  48 E1         N/A
* DENTON       N/A       54  44  69 S10        N/A
* GEYSER       N/A       51  42  71 W3G9       N/A
* JUDITH GAP   N/A       53  40  62 NE9        N/A
* LOMA         N/A       64  38  38 NE6        N/A
$$

MTZ017>020-022>027-061-062-030600-
NORTHEAST MONTANA
CITY           SKY/WX    TMP DP  RH WIND       PRES   REMARKS
GLASGOW        PTCLDY    55  46  72 E9        29.69F
GLENDIVE       CLEAR     55  45  69 E6        29.75F
JORDAN         CLEAR     54  45  72 E3        29.71F
SIDNEY         CLEAR     52  45  77 CALM      29.74F
WOLF POINT     CLEAR     55  46  72 E3        29.71F
* BEAVER HILL  N/A       54  42  64 SE11       N/A
* CIRCLE       N/A       53  45  74 N/A        N/A
* LINDSAY DVD  N/A       54  39  57 E6         N/A
* NAVAJO       N/A       56  43  62 SW5        N/A
* SACO         N/A       58  46  65 S4         N/A
$$

MTZ028>042-056>058-030600-
SOUTHCENTRAL AND SOUTHEAST MONTANA
CITY           SKY/WX    TMP DP  RH WIND       PRES   REMARKS
BAKER          CLEAR     54  45  72 E3        29.77F
BILLINGS       CLEAR     64  45  50 NE3       29.69F
LIVINGSTON     CLEAR     70  34  27 SW17G26   29.72F
MILES CITY     CLEAR     64  43  47 E7        29.71F
* LAUREL APT   CLEAR     63  43  48 N/A        N/A
* ROUNDUP APT  CLEAR     59  43  56 N5         N/A
* ALZADA       N/A       62  44  52 NE9        N/A
* HYSHAM       N/A       64  38  38 E6         N/A
* LAME DEER    N/A       64  40  41 E9         N/A
* REED POINT   N/A       57  42  57 E3         N/A
* ROSCOE HILL  N/A       67  22  18 S7G13      N/A
$$

REGIONAL REPORTS...DAKOTAS
CITY           SKY/WX    TMP DP  RH WIND       PRES   REMARKS
WILLISTON      CLEAR     52  46  80 CALM      29.73F
DICKINSON      PTCLDY    50  45  83 S5        29.76S
BEACH          N/A       48  45  89 S7        29.77F
CROSBY         CLEAR     54  50  86 S7        29.74S
TIOGA          CLEAR     48  48 100 E5        29.78F
WATFORD CITY   CLEAR     52  46  80 CALM      29.73S
BISMARCK       PTCLDY    55  54  96 NE6       29.77S
GRAND FORKS    MOCLDY    57  54  90 W3        29.72S
FARGO          MOCLDY    66  55  68 S8        29.75S
BUFFALO SD     CLEAR     55  46  72 E9        29.71F
RAPID CITY     CLEAR     55  46  72 CALM      29.79F
$$

REGIONAL REPORTS...WYOMING/IDAHO/WASHINGTON
CITY           SKY/WX    TMP DP  RH WIND       PRES   REMARKS
GILLETTE       CLEAR     61  39  44 S14       29.77F
SHERIDAN       CLEAR     54  45  72 SE6       29.73F
CODY           CLEAR    N/A N/A N/A N/A        N/A
YELLOWSTONE LA CLEAR     39  34  82 CALM      30.05F
SALMON         CLEAR     61  30  31 SE8       29.73F
MULLAN PASS    CLOUDY    50  34  54 VRB5      29.80S
SAND POINT     MOCLDY    55  52  90 CALM      29.63F
SPOKANE        TSTM      63  45  52 W9        29.66F

$$




USA.gov is the U.S. government's official web portal to all federal, state and local government web resources and services.